Location: Peebles
(55.6412°N, 3.1714°W)
Time: 15:11:05
(UTC+01:00)

Cosmos 1805 - Pass Details

Date: 26 September 2021
Orbit: 522 x 530 km, 82.5° (Epoch: 17 October)

Event Time Altitude Azimuth Distance (km) Brightness Sun altitude
Rises 20:32:49 0° 185° (S) 2,652 6.7 -13.7°
Reaches altitude 10° 20:34:57 10° 183° (S) 1,766 5.7 -13.9°
Maximum altitude 20:38:49 72° 99° (E) 558 3.1 -14.5°
Drops below altitude 10° 20:42:42 10° 15° (NNE) 1,778 6.0 -15.0°
Sets 20:44:51 0° 14° (NNE) 2,671 6.9 -15.3°
